Dewpoint
71 71 72 74 74 74 73 73 73 73 73 74 74 74 74 74 74 74 74 74 73 73 73 72 72 72 72 72 72 72 72 72 72 72 71 71 71 71 72 72 72 72 73 72 72 73 73 72 72 72 72 73 73 72 72 72 71 71 71 71 70 70 70 70 69 70 69 69 70 70 70 70 70 70 69 69 68 67 67 68 67 65 66 66 67
71 71 72 73 74 73 73 73 73 73 73 73 73 74 74 74 74 74 73 74 73 73 73 72 72 72 72 72 71 72 72 72 72 72 71 71 71 71 72 72 72 72 72 72 72 72 73 72 72 72 73 72 72 72 72 72 71 71 71 71 71 70 70 69 70 70 70 70 70 69 69 69 69 69 69 68 68 67 67 67 68 66 65 67 67
71 71 72 73 74 73 73 73 73 73 73 73 73 74 74 74 74 74 73 73 73 73 72 72 72 71 71 71 71 72 72 72 72 71 71 71 71 71 71 72 72 72 72 72 72 72 73 73 73 73 73 73 73 73 72 72 72 71 71 71 71 71 71 70 70 70 70 70 69 69 69 69 68 68 68 68 68 68 68 68 68 68 65 67 67
70 71 72 73 74 74 73 73 73 73 73 73 73 73 74 74 74 73 73 73 73 73 72 72 71 71 71 71 71 72 72 71 71 71 71 71 71 71 71 71 72 72 71 72 73 73 73 73 73 73 73 72 72 72 72 72 72 71 71 71 71 71 71 70 70 70 70 69 69 69 69 67 67 68 68 68 68 69 69 69 68 68 68 67 68
70 71 72 72 73 73 73 73 73 73 73 73 73 73 73 74 73 73 73 73 73 73 72 72 71 71 71 72 72 72 72 71 71 71 71 71 71 71 71 71 72 72 72 72 72 72 73 72 73 72 73 72 72 72 72 72 71 70 71 71 71 71 70 70 69 70 70 70 69 69 66 66 66 68 69 68 68 68 69 69 69 68 68 68 67
70 71 71 72 72 73 73 73 73 73 73 73 73 73 73 73 73 73 73 73 72 72 72 72 71 71 71 71 72 72 72 71 71 71 71 70 71 71 71 71 71 72 72 72 72 72 72 72 72 72 72 73 72 73 72 71 71 71 71 70 71 71 70 69 69 70 69 70 69 71 66 66 66 67 69 69 69 68 69 69 68 68 68 68 68
71 71 71 71 72 72 73 73 72 72 72 72 72 73 73 73 73 73 73 72 72 72 72 71 71 71 72 72 72 72 72 71 71 71 70 70 70 71 71 71 71 71 72 72 71 71 71 71 72 72 73 72 73 72 72 71 72 71 71 71 71 71 71 69 69 69 70 70 70 70 65 66 66 67 69 70 70 69 68 68 68 68 68 68 68
70 70 70 71 71 73 73 73 73 72 72 72 72 72 72 72 73 73 72 72 72 72 72 71 71 71 72 72 72 71 71 71 71 71 70 70 70 70 71 71 71 71 71 71 71 71 71 71 72 72 73 72 72 73 73 73 72 71 71 72 71 72 71 70 69 70 70 68 66 67 66 66 66 66 69 69 69 70 69 69 69 68 68 68 68
69 69 70 70 72 73 73 72 72 72 72 71 71 71 72 71 72 72 72 71 72 71 72 71 71 71 72 72 71 71 71 71 71 71 70 70 70 71 71 70 70 70 71 71 71 70 71 71 72 72 72 73 72 72 73 73 72 72 72 72 72 72 71 69 69 68 68 67 65 65 66 66 66 66 68 69 69 68 69 68 68 68 68 68 69
69 69 70 71 72 73 73 73 73 72 71 71 71 71 71 71 71 72 71 71 72 71 72 71 70 71 71 72 72 71 71 71 70 70 70 69 69 70 71 70 70 70 70 71 70 70 70 71 71 72 72 72 72 72 72 71 72 71 72 73 72 72 71 69 69 69 66 66 68 66 67 68 66 67 68 69 69 69 69 69 68 68 69 69 68
68 69 70 71 72 73 73 73 72 72 71 71 71 71 71 71 70 70 71 71 71 72 71 70 70 70 71 71 72 71 70 71 70 70 70 69 69 69 70 71 70 70 70 71 70 70 71 71 71 72 73 73 72 72 72 71 72 72 73 73 73 73 72 70 69 68 68 67 66 68 69 70 67 67 69 69 69 69 69 69 69 69 69 69 68
69 70 70 71 73 73 73 73 72 72 71 71 71 71 71 71 70 70 70 71 71 71 71 70 70 70 71 72 72 71 71 71 70 70 70 69 69 69 69 70 69 71 70 70 70 70 71 70 72 72 73 72 72 72 72 72 72 73 73 73 73 73 72 69 68 67 67 66 68 68 67 67 67 68 69 69 69 69 69 69 69 69 69 69 68
69 70 70 72 72 73 73 72 72 72 71 71 71 70 71 71 70 70 70 70 71 71 70 70 70 71 72 72 72 71 71 70 70 70 71 70 69 68 68 69 69 69 69 70 70 70 70 70 72 72 72 72 72 73 73 73 73 73 73 73 72 71 71 68 68 69 68 68 67 68 68 68 68 69 69 69 69 69 69 69 69 69 69 69 68
70 70 71 71 72 73 73 72 72 72 71 71 71 70 71 71 70 70 70 70 70 71 70 71 71 71 72 72 71 71 71 70 70 71 70 70 69 69 68 68 68 68 69 71 70 69 69 70 71 72 72 72 71 72 73 73 73 73 73 72 71 71 71 68 68 67 68 68 69 68 68 69 68 69 69 69 69 69 69 69 69 69 69 68 67
70 70 71 71 71 72 72 72 72 72 71 71 71 71 71 71 70 70 69 70 70 70 70 71 71 72 72 72 71 71 71 70 71 71 70 70 70 69 69 69 68 69 70 70 69 68 69 70 71 72 72 71 72 72 72 73 73 72 71 70 70 69 69 68 69 68 69 69 69 68 68 68 69 69 69 69 70 70 69 69 68 69 68 67 66
70 70 70 71 71 71 72 72 72 72 72 72 72 71 71 71 70 69 69 69 70 70 70 70 71 71 71 71 71 71 71 70 71 71 70 70 70 70 69 69 69 69 69 70 69 69 68 69 71 72 72 71 71 72 72 72 72 71 70 70 70 70 69 69 69 69 69 67 69 69 68 68 69 69 69 69 69 69 69 68 68 68 67 66 66
70 70 70 71 71 71 71 71 71 72 72 72 72 71 71 71 70 70 69 69 69 70 69 69 70 70 70 70 71 71 71 71 71 71 70 70 70 69 69 69 69 69 69 69 68 68 68 69 70 71 72 71 71 71 71 71 71 70 70 71 71 70 70 70 69 68 68 68 68 68 68 68 69 69 69 69 69 68 68 68 69 67 67 66 65
69 70 70 70 71 71 71 71 71 71 70 71 71 71 71 71 70 70 69 69 69 69 69 69 69 70 70 70 70 71 71 70 70 70 70 70 70 69 69 69 69 68 68 69 68 68 69 69 69 71 71 71 71 71 70 70 71 70 71 72 71 70 70 71 69 69 68 69 68 69 69 69 69 69 69 69 69 68 68 68 68 67 66 65 64
69 69 69 70 70 71 71 70 70 70 70 70 71 71 71 71 71 70 70 69 70 69 69 69 69 69 69 70 70 71 70 69 70 71 70 70 70 69 69 69 69 68 68 68 68 68 68 69 70 71 72 71 71 71 70 69 70 70 71 71 70 70 70 70 70 68 68 68 68 68 68 70 69 69 69 69 69 68 68 68 67 66 65 62 61
68 68 69 69 69 70 71 70 70 70 70 71 71 71 71 71 70 71 70 70 69 69 69 69 70 70 70 70 70 71 70 69 71 70 71 70 70 69 69 69 69 68 69 69 68 68 68 69 69 69 71 71 71 70 70 70 70 70 70 70 71 70 68 68 69 68 68 69 69 68 69 69 69 69 69 69 69 68 68 67 65 63 61 60 60
68 68 68 68 69 70 70 69 69 70 70 70 71 71 70 71 70 71 70 70 69 69 69 69 70 70 70 70 71 70 70 70 70 69 70 69 70 69 69 69 69 68 69 69 68 68 68 69 68 70 71 71 71 70 70 70 70 70 70 71 70 68 68 69 68 69 68 69 69 69 70 69 69 69 69 68 67 66 66 65 63 61 60 60 61
66 67 68 68 68 69 70 70 69 69 70 70 71 71 71 70 70 70 70 70 69 70 69 69 70 68 70 70 71 71 70 70 69 71 70 70 69 69 69 69 69 68 69 69 68 68 68 68 68 68 69 71 71 68 69 71 70 70 70 70 68 67 68 68 68 68 68 68 69 69 69 69 69 69 69 68 68 67 64 63 61 60 60 60 61
65 66 67 68 67 68 69 70 69 69 69 69 70 71 71 71 71 70 70 71 70 70 69 69 68 68 69 70 71 70 69 70 70 70 70 70 70 70 69 69 69 68 69 69 68 68 68 68 68 67 68 70 69 68 68 68 68 70 70 69 68 68 68 69 67 68 68 69 68 69 69 69 68 68 68 68 67 65 63 62 60 60 59 60 60
65 66 67 68 67 67 68 70 70 69 69 69 69 70 71 70 70 70 70 70 69 69 68 68 67 67 67 68 69 70 69 69 71 71 71 69 69 70 69 69 69 69 68 69 69 68 68 68 68 68 70 69 66 67 67 67 68 68 67 67 67 67 67 68 67 68 68 69 68 69 69 68 68 68 68 66 65 64 62 61 61 61 61 60 60
65 66 67 67 66 67 67 68 70 69 69 69 69 70 70 69 69 70 70 69 69 68 67 66 66 66 66 67 67 68 69 69 69 70 69 69 69 69 68 68 67 67 69 66 66 67 67 67 65 68 66 66 64 64 63 66 67 67 67 68 68 67 67 68 67 67 68 68 68 69 68 68 68 68 67 65 64 63 62 61 61 61 61 60 60
67 65 65 66 66 67 66 66 70 70 69 69 69 69 69 69 69 69 69 69 68 67 67 66 65 64 64 66 65 66 66 68 68 69 68 69 69 68 68 67 67 67 68 66 66 64 66 65 60 62 62 63 61 60 60 67 65 66 67 68 68 67 68 68 68 68 68 68 68 68 68 68 68 67 66 65 63 62 62 61 61 61 61 60 60
66 66 65 65 66 67 66 66 68 70 70 69 69 69 68 69 68 69 69 69 68 68 67 66 64 63 64 64 64 64 64 65 66 68 68 68 68 68 67 67 66 66 67 66 65 65 65 62 60 59 59 58 58 57 59 65 64 65 66 68 69 68 68 68 68 67 67 67 68 68 68 67 67 66 65 64 62 61 61 61 61 61 60 60 60
66 67 64 65 66 67 66 66 67 68 70 70 69 68 68 68 68 69 68 69 68 68 67 66 65 63 63 63 64 63 63 64 65 66 67 68 68 67 67 67 66 66 66 66 65 65 63 61 60 59 58 57 55 56 55 65 64 64 66 67 68 68 68 68 67 67 67 67 67 68 68 67 66 65 64 63 62 61 61 61 61 60 60 59 59
65 67 66 65 66 67 66 66 67 67 69 70 69 68 68 68 68 68 68 69 68 68 68 66 65 63 63 63 63 62 62 64 63 64 65 67 67 67 66 66 65 64 66 65 64 64 63 61 60 58 58 57 56 55 55 63 63 64 66 67 67 67 67 67 67 66 66 66 67 67 67 66 66 65 63 62 61 60 61 61 61 60 60 59 58
67 66 66 66 67 66 66 66 67 66 68 70 69 68 67 68 68 68 67 68 68 68 68 67 65 62 62 62 63 63 62 64 62 63 63 65 66 66 66 65 64 64 65 64 63 62 63 61 59 58 57 57 56 56 60 61 62 64 65 66 66 67 67 67 66 65 65 65 66 66 66 65 65 64 62 61 61 61 61 61 60 60 60 59 58
66 66 66 67 67 66 66 67 68 67 68 69 69 68 67 68 68 68 68 68 68 68 67 67 65 63 63 63 64 64 62 63 63 63 62 63 65 65 65 64 63 63 64 64 63 61 63 62 59 58 56 56 59 62 61 62 63 64 66 66 66 66 66 66 66 64 64 64 64 65 65 64 63 63 62 61 61 61 60 59 59 59 58 57 57
65 65 66 67 67 67 66 67 68 68 68 69 69 68 67 68 68 68 68 68 68 68 67 66 64 64 64 64 66 64 64 63 64 63 62 63 64 65 65 64 63 63 65 63 62 61 62 63 61 60 59 62 63 63 63 63 65 66 66 65 66 65 66 66 65 63 63 63 63 63 63 62 62 62 62 61 60 60 60 59 59 58 57 56 55
66 67 68 67 67 67 66 67 68 68 68 68 68 68 68 68 68 68 68 68 68 68 66 64 63 64 65 65 65 66 65 65 65 64 64 63 64 65 65 66 63 64 65 63 62 61 62 63 62 63 62 66 66 66 66 65 65 66 65 66 66 65 65 65 65 63 62 62 62 62 62 62 60 61 60 60 60 59 59 59 59 58 58 58 56
66 68 68 67 67 66 66 67 68 67 68 67 68 68 67 68 67 68 67 68 67 67 66 64 64 64 64 65 65 65 66 66 68 64 64 64 64 65 65 66 66 66 65 63 61 63 64 63 64 64 68 67 66 66 66 66 65 66 66 67 66 65 65 65 66 65 62 61 61 61 61 60 60 60 59 60 59 58 58 58 59 59 59 58 58
66 67 67 67 67 66 66 67 68 67 67 67 68 68 67 68 67 67 67 68 67 66 66 65 65 65 64 65 66 65 66 66 68 66 65 65 66 65 65 65 66 66 63 65 65 63 62 63 63 65 66 67 67 67 66 66 66 66 66 67 67 66 65 64 65 64 63 60 60 60 60 59 59 59 59 60 61 59 59 59 59 59 58 57 57
64 65 66 66 65 65 65 67 67 67 67 67 67 68 67 67 66 69 67 67 66 65 66 65 64 65 64 64 65 65 65 66 68 67 67 65 66 65 64 65 65 65 63 66 64 61 62 65 65 65 65 66 67 66 66 66 66 66 66 66 66 67 65 63 63 63 62 60 60 59 58 58 57 57 60 58 58 59 59 59 59 58 57 56 56
64 64 65 65 65 65 66 66 67 66 66 67 67 67 67 66 66 67 67 67 66 65 66 65 64 64 65 64 65 65 65 66 67 67 66 66 65 64 64 64 64 63 64 65 64 65 64 65 65 65 65 66 66 66 65 65 65 65 65 65 65 65 64 63 62 62 62 59 59 59 58 57 57 61 58 57 57 58 59 59 58 56 56 56 55
64 63 64 64 64 64 67 67 67 66 66 67 67 67 67 66 66 67 67 66 66 65 65 65 63 63 65 65 65 65 65 65 66 66 66 66 64 63 64 64 64 63 66 64 64 64 65 65 65 65 66 66 65 66 65 65 65 65 64 65 64 63 63 63 62 64 56 59 59 58 57 56 57 58 57 57 57 57 57 59 57 56 56 56 56
64 64 64 64 65 65 68 67 67 66 67 67 67 67 67 66 65 67 66 66 65 65 64 64 63 63 65 65 65 65 65 64 66 66 65 66 65 63 64 65 65 65 68 66 66 65 65 66 65 64 65 66 66 66 66 65 65 65 64 63 62 63 63 63 63 60 56 56 56 58 57 56 57 57 56 56 56 56 55 56 55 55 57 56 54
65 66 66 65 65 66 67 67 67 67 67 67 66 67 67 65 64 66 65 65 65 65 64 63 63 62 65 65 65 65 64 64 66 65 65 66 67 65 65 68 67 66 68 67 66 65 65 65 65 64 65 65 66 66 65 64 63 63 62 62 63 62 62 62 61 60 56 55 54 54 55 56 56 56 56 56 55 55 55 55 57 55 54 56 55
66 67 66 65 65 65 67 66 66 67 66 66 65 65 65 65 64 65 65 65 64 64 64 64 62 61 65 64 64 64 63 64 65 65 64 68 68 68 68 69 68 67 67 67 65 65 65 65 65 64 64 64 64 65 65 64 62 60 60 60 59 62 65 62 62 60 55 54 54 51 51 51 50 52 56 55 55 54 54 54 55 54 53 53 56
67 67 66 65 65 65 66 66 66 66 66 66 65 65 65 64 63 63 65 65 64 64 63 65 62 61 64 64 64 64 62 64 65 66 65 67 68 68 68 69 68 68 68 68 66 66 65 65 65 64 64 64 64 65 65 63 59 59 58 57 58 59 61 60 61 61 59 55 53 52 50 48 47 45 54 55 54 54 54 54 54 53 52 52 53
67 67 66 65 65 65 66 66 66 66 66 66 65 64 65 64 64 64 64 64 64 64 63 65 63 60 63 64 64 63 61 64 65 66 67 67 67 68 68 69 68 68 68 68 67 66 66 65 64 63 63 63 63 65 64 62 60 59 59 58 55 55 56 58 59 60 60 55 54 52 52 49 46 44 50 54 53 53 52 52 52 51 50 50 51
68 67 66 66 66 65 66 66 66 65 65 66 65 65 65 65 65 64 65 64 63 64 64 64 63 60 61 64 64 64 61 63 66 65 67 68 67 68 69 69 68 68 68 67 67 66 65 65 64 63 64 63 62 63 64 64 62 59 56 56 55 55 53 55 57 58 60 58 53 51 53 49 45 43 48 47 51 53 52 51 51 50 49 49 50
68 67 66 66 66 65 65 66 66 65 65 66 65 65 65 65 65 65 66 64 64 63 63 62 63 60 59 64 63 65 62 62 65 66 66 67 67 68 68 68 68 68 68 67 67 66 65 65 64 64 63 62 62 62 63 64 62 61 59 57 56 54 54 55 57 57 59 59 55 51 54 48 47 44 45 42 43 47 49 49 50 49 48 47 47
68 67 67 67 66 65 65 65 66 65 65 65 65 65 64 64 64 63 63 63 62 62 61 61 62 59 58 64 64 65 63 63 65 65 65 66 67 67 68 68 68 68 68 68 68 67 66 65 65 64 63 63 63 62 62 64 63 62 61 59 58 56 55 56 56 54 57 59 57 54 53 49 50 45 43 41 40 40 42 43 47 48 47 46 45
68 68 67 67 66 66 66 65 66 66 65 65 66 66 65 64 64 62 62 62 62 62 62 62 64 59 59 62 65 65 65 64 64 64 64 66 67 67 68 67 68 68 68 67 67 67 66 66 65 64 63 63 63 62 62 62 63 64 63 62 62 61 60 57 55 54 53 55 56 55 53 51 51 44 43 41 41 41 40 42 45 44 45 45 45
68 68 68 67 66 66 66 65 66 66 66 65 66 66 65 64 64 63 62 62 62 62 62 62 64 60 58 60 63 64 65 64 64 64 64 65 67 67 67 67 67 68 68 67 67 68 67 66 66 65 64 64 63 62 61 62 62 62 63 61 61 62 61 59 57 55 54 53 54 56 54 51 51 47 42 42 41 42 40 46 44 43 44 44 45
68 68 68 67 67 66 66 66 66 66 66 66 66 66 65 65 64 64 63 62 62 64 63 63 64 61 59 60 61 64 64 64 64 64 63 64 67 67 67 67 67 68 68 67 67 68 67 66 66 65 65 63 62 61 62 62 63 62 62 62 61 61 61 60 59 58 54 53 53 53 53 53 51 51 48 44 43 43 43 44 43 43 45 45 44
68 68 68 68 67 66 66 66 66 66 67 66 66 66 66 65 65 64 63 63 62 64 64 62 65 62 59 60 60 63 64 64 64 64 64 63 65 67 67 67 67 67 67 67 67 68 68 67 66 65 65 63 62 62 62 62 63 62 62 62 61 60 59 59 58 57 56 55 53 52 52 51 49 50 51 50 48 47 45 43 44 44 44 43 43
68 68 68 68 67 67 66 66 66 66 67 66 66 66 66 65 64 64 64 63 62 63 64 62 64 64 60 61 60 61 63 64 64 63 64 64 64 66 66 66 66 67 67 66 66 67 68 67 66 65 65 64 64 63 63 63 63 63 62 62 61 60 59 58 58 57 56 54 53 52 52 50 50 49 51 51 50 50 45 43 42 42 44 44 42